Time,TemperatureF,DewpointF,PressureIn,WindDirection,WindDirectionDegrees,WindSpeedMPH,WindSpeedGustMPH,Humidity,HourlyPrecipIn,Conditions,Clouds,dailyrainin,SoftwareType,DateUTC
2013-04-15 00:02:00,61.0,24.0,29.39,North,0,0.0,0.0,24,0.00,,,0.00,,2013-04-15 07:02:00,
2013-04-15 00:42:00,60.0,24.0,29.39,North,0,0.0,0.0,25,0.00,,,0.00,,2013-04-15 07:42:00,
2013-04-15 00:53:00,59.0,23.0,29.39,North,0,0.0,0.0,25,0.00,,,0.00,,2013-04-15 07:53:00,
2013-04-15 01:02:00,59.0,23.0,29.42,North,0,0.0,0.0,25,0.00,,,0.00,,2013-04-15 08:02:00,
2013-04-15 01:11:00,59.0,23.0,29.42,North,0,0.0,0.0,25,0.00,,,0.00,,2013-04-15 08:11:00,
2013-04-15 01:21:00,58.0,22.0,29.42,North,0,0.0,0.0,25,0.00,,,0.00,,2013-04-15 08:21:00,
2013-04-15 01:32:00,58.0,22.0,29.46,North,0,0.0,0.0,25,0.00,,,0.00,,2013-04-15 08:32:00,
2013-04-15 01:42:00,58.0,22.0,29.46,North,0,0.0,0.0,25,0.00,,,0.00,,2013-04-15 08:42:00,
2013-04-15 01:52:00,58.0,22.0,29.46,North,0,0.0,0.0,25,0.00,,,0.00,,2013-04-15 08:52:00,
2013-04-15 02:01:00,57.0,22.0,29.46,North,0,0.0,0.0,25,0.00,,,0.00,,2013-04-15 09:01:00,
2013-04-15 02:22:00,57.0,22.0,29.46,North,0,0.0,0.0,25,0.00,,,0.00,,2013-04-15 09:22:00,
2013-04-15 02:32:00,56.0,21.0,29.46,North,0,0.0,0.0,25,0.00,,,0.00,,2013-04-15 09:32:00,
2013-04-15 02:42:00,56.0,21.0,29.46,North,0,0.0,0.0,25,0.00,,,0.00,,2013-04-15 09:42:00,
2013-04-15 02:53:00,56.0,22.0,29.46,North,0,0.0,0.0,26,0.00,,,0.00,,2013-04-15 09:53:00,
2013-04-15 03:02:00,56.0,22.0,29.42,North,0,0.0,0.0,26,0.00,,,0.00,,2013-04-15 10:02:00,
2013-04-15 03:12:00,56.0,22.0,29.42,North,0,0.0,0.0,26,0.00,,,0.00,,2013-04-15 10:12:00,
2013-04-15 03:22:00,56.0,23.0,29.42,North,0,0.0,0.0,27,0.00,,,0.00,,2013-04-15 10:22:00,
2013-04-15 03:32:00,55.0,22.0,29.46,North,0,0.0,0.0,27,0.00,,,0.00,,2013-04-15 10:32:00,
2013-04-15 03:42:00,55.0,22.0,29.46,North,0,0.0,0.0,27,0.00,,,0.00,,2013-04-15 10:42:00,
2013-04-15 03:52:00,55.0,22.0,29.46,North,0,0.0,0.0,27,0.00,,,0.00,,2013-04-15 10:52:00,
2013-04-15 04:12:00,54.0,21.0,29.42,North,0,0.0,0.0,27,0.00,,,0.00,,2013-04-15 11:12:00,
2013-04-15 04:22:00,54.0,22.0,29.42,North,0,0.0,0.0,28,0.00,,,0.00,,2013-04-15 11:22:00,
2013-04-15 04:32:00,53.0,21.0,29.42,North,0,0.0,0.0,28,0.00,,,0.00,,2013-04-15 11:32:00,
2013-04-15 04:42:00,53.0,21.0,29.42,North,0,0.0,0.0,28,0.00,,,0.00,,2013-04-15 11:42:00,
2013-04-15 04:53:00,53.0,22.0,29.46,North,0,0.0,0.0,29,0.00,,,0.00,,2013-04-15 11:53:00,
2013-04-15 05:02:00,53.0,22.0,29.46,North,0,0.0,0.0,29,0.00,,,0.00,,2013-04-15 12:02:00,
2013-04-15 05:12:00,53.0,22.0,29.46,North,0,0.0,0.0,29,0.00,,,0.00,,2013-04-15 12:12:00,
2013-04-15 05:22:00,53.0,22.0,29.46,North,0,0.0,0.0,29,0.00,,,0.00,,2013-04-15 12:22:00,
2013-04-15 05:32:00,53.0,22.0,29.46,North,0,0.0,0.0,29,0.00,,,0.00,,2013-04-15 12:32:00,
2013-04-15 05:42:00,53.0,22.0,29.46,North,0,0.0,0.0,29,0.00,,,0.00,,2013-04-15 12:42:00,
2013-04-15 05:53:00,53.0,22.0,29.46,North,0,0.0,0.0,29,0.00,,,0.00,,2013-04-15 12:53:00,
2013-04-15 06:02:00,53.0,22.0,29.46,North,0,0.0,0.0,30,0.00,,,0.00,,2013-04-15 13:02:00,
2013-04-15 06:12:00,53.0,22.0,29.46,North,0,0.0,0.0,30,0.00,,,0.00,,2013-04-15 13:12:00,
2013-04-15 06:22:00,53.0,22.0,29.46,North,0,0.0,0.0,30,0.00,,,0.00,,2013-04-15 13:22:00,
2013-04-15 06:32:00,53.0,22.0,29.49,North,0,0.0,0.0,30,0.00,,,0.00,,2013-04-15 13:32:00,
2013-04-15 06:42:00,53.0,22.0,29.49,North,0,0.0,0.0,30,0.00,,,0.00,,2013-04-15 13:42:00,
2013-04-15 06:53:00,53.0,23.0,29.46,North,0,0.0,0.0,31,0.00,,,0.00,,2013-04-15 13:53:00,
2013-04-15 07:02:00,53.0,24.0,29.46,North,0,0.0,0.0,32,0.00,,,0.00,,2013-04-15 14:02:00,
2013-04-15 07:12:00,53.0,24.0,29.46,North,0,0.0,0.0,32,0.00,,,0.00,,2013-04-15 14:12:00,
2013-04-15 07:21:00,54.0,26.0,29.46,North,0,0.0,0.0,33,0.00,,,0.00,,2013-04-15 14:21:00,
2013-04-15 07:32:00,55.0,26.0,29.46,North,0,0.0,0.0,33,0.00,,,0.00,,2013-04-15 14:32:00,
2013-04-15 07:42:00,55.0,26.0,29.46,North,0,0.0,0.0,33,0.00,,,0.00,,2013-04-15 14:42:00,
2013-04-15 07:54:00,56.0,27.0,29.46,North,0,0.0,0.0,32,0.00,,,0.00,,2013-04-15 14:54:00,
2013-04-15 08:02:00,58.0,28.0,29.46,North,0,0.0,0.0,31,0.00,,,0.00,,2013-04-15 15:02:00,
2013-04-15 08:12:00,58.0,28.0,29.46,North,0,0.0,0.0,31,0.00,,,0.00,,2013-04-15 15:12:00,
2013-04-15 08:22:00,59.0,27.0,29.49,North,0,0.0,0.0,29,0.00,,,0.00,,2013-04-15 15:22:00,
2013-04-15 08:33:00,61.0,28.0,29.46,North,0,0.0,0.0,28,0.00,,,0.00,,2013-04-15 15:33:00,
2013-04-15 08:43:00,61.0,28.0,29.46,North,0,0.0,0.0,28,0.00,,,0.00,,2013-04-15 15:43:00,
2013-04-15 08:54:00,62.0,28.0,29.46,North,0,0.0,0.0,27,0.00,,,0.00,,2013-04-15 15:54:00,
2013-04-15 09:02:00,65.0,28.0,29.46,North,0,0.0,0.0,25,0.00,,,0.00,,2013-04-15 16:02:00,
2013-04-15 09:12:00,65.0,28.0,29.46,North,0,0.0,0.0,25,0.00,,,0.00,,2013-04-15 16:12:00,
2013-04-15 09:23:00,66.0,28.0,29.46,North,0,0.0,0.0,24,0.00,,,0.00,,2013-04-15 16:23:00,
2013-04-15 09:32:00,67.0,29.0,29.46,North,0,0.0,0.0,24,0.00,,,0.00,,2013-04-15 16:32:00,
2013-04-15 09:42:00,67.0,29.0,29.46,North,0,0.0,0.0,24,0.00,,,0.00,,2013-04-15 16:42:00,
2013-04-15 09:53:00,67.0,28.0,29.46,North,0,0.0,0.0,23,0.00,,,0.00,,2013-04-15 16:53:00,
2013-04-15 10:02:00,68.0,29.0,29.46,North,0,0.0,0.0,23,0.00,,,0.00,,2013-04-15 17:02:00,
2013-04-15 10:12:00,68.0,29.0,29.46,North,0,0.0,0.0,23,0.00,,,0.00,,2013-04-15 17:12:00,
2013-04-15 10:21:00,68.0,29.0,29.46,North,0,0.0,0.0,23,0.00,,,0.00,,2013-04-15 17:21:00,
2013-04-15 10:32:00,70.0,29.0,29.46,North,0,0.0,0.0,22,0.00,,,0.00,,2013-04-15 17:32:00,
2013-04-15 10:42:00,70.0,29.0,29.46,North,0,0.0,0.0,22,0.00,,,0.00,,2013-04-15 17:42:00,
2013-04-15 10:52:00,70.0,29.0,29.46,North,0,0.0,0.0,22,0.00,,,0.00,,2013-04-15 17:52:00,
2013-04-15 11:02:00,70.0,29.0,29.46,North,0,0.0,0.0,22,0.00,,,0.00,,2013-04-15 18:02:00,
2013-04-15 11:11:00,70.0,29.0,29.46,North,0,0.0,0.0,22,0.00,,,0.00,,2013-04-15 18:11:00,
2013-04-15 11:22:00,71.0,30.0,29.46,North,0,0.0,0.0,22,0.00,,,0.00,,2013-04-15 18:22:00,
2013-04-15 11:32:00,72.0,30.0,29.46,North,0,0.0,0.0,21,0.00,,,0.00,,2013-04-15 18:32:00,
2013-04-15 11:42:00,72.0,30.0,29.46,North,0,0.0,0.0,21,0.00,,,0.00,,2013-04-15 18:42:00,
2013-04-15 11:52:00,72.0,30.0,29.46,North,0,0.0,0.0,21,0.00,,,0.00,,2013-04-15 18:52:00,
2013-04-15 12:01:00,72.0,30.0,29.46,North,0,0.0,0.0,21,0.00,,,0.00,,2013-04-15 19:01:00,
2013-04-15 12:11:00,72.0,30.0,29.46,North,0,0.0,0.0,21,0.00,,,0.00,,2013-04-15 19:11:00,
2013-04-15 12:21:00,73.0,28.0,29.46,North,0,0.0,0.0,19,0.00,,,0.00,,2013-04-15 19:21:00,
2013-04-15 12:42:00,73.0,28.0,29.42,North,0,0.0,0.0,19,0.00,,,0.00,,2013-04-15 19:42:00,
2013-04-15 12:59:00,73.0,28.0,29.42,North,0,0.0,0.0,19,0.00,,,0.00,,2013-04-15 19:59:00,
2013-04-15 13:11:00,73.0,28.0,29.39,North,0,0.0,0.0,19,0.00,,,0.00,,2013-04-15 20:11:00,
2013-04-15 13:21:00,73.0,28.0,29.42,North,0,0.0,0.0,19,0.00,,,0.00,,2013-04-15 20:21:00,
2013-04-15 13:31:00,73.0,28.0,29.42,North,0,0.0,0.0,19,0.00,,,0.00,,2013-04-15 20:31:00,
2013-04-15 13:42:00,73.0,28.0,29.42,North,0,0.0,0.0,19,0.00,,,0.00,,2013-04-15 20:42:00,
2013-04-15 13:52:00,73.0,24.0,29.42,North,0,0.0,0.0,16,0.00,,,0.00,,2013-04-15 20:52:00,
2013-04-15 14:01:00,74.0,25.0,29.42,North,0,0.0,0.0,16,0.00,,,0.00,,2013-04-15 21:01:00,
2013-04-15 14:21:00,74.0,25.0,29.42,North,0,0.0,0.0,16,0.00,,,0.00,,2013-04-15 21:21:00,
2013-04-15 14:32:00,74.0,25.0,29.39,North,0,0.0,0.0,16,0.00,,,0.00,,2013-04-15 21:32:00,
2013-04-15 14:53:00,73.0,24.0,29.39,North,0,0.0,0.0,16,0.00,,,0.00,,2013-04-15 21:53:00,
2013-04-15 15:02:00,73.0,24.0,29.39,North,0,0.0,0.0,16,0.00,,,0.00,,2013-04-15 22:02:00,
2013-04-15 15:22:00,73.0,24.0,29.39,North,0,0.0,0.0,16,0.00,,,0.00,,2013-04-15 22:22:00,
2013-04-15 15:32:00,73.0,24.0,29.39,North,0,0.0,0.0,16,0.00,,,0.00,,2013-04-15 22:32:00,
2013-04-15 15:52:00,72.0,23.0,29.39,North,0,0.0,0.0,16,0.00,,,0.00,,2013-04-15 22:52:00,
2013-04-15 16:02:00,72.0,23.0,29.39,North,0,0.0,0.0,16,0.00,,,0.00,,2013-04-15 23:02:00,
2013-04-15 16:22:00,71.0,27.0,29.39,North,0,0.0,0.0,19,0.00,,,0.00,,2013-04-15 23:22:00,
2013-04-15 16:31:00,71.0,27.0,29.39,North,0,0.0,0.0,19,0.00,,,0.00,,2013-04-15 23:31:00,
2013-04-15 16:41:00,71.0,27.0,29.39,North,0,0.0,0.0,19,0.00,,,0.00,,2013-04-15 23:41:00,
2013-04-15 16:52:00,70.0,26.0,29.39,North,0,0.0,0.0,19,0.00,,,0.00,,2013-04-15 23:52:00,
2013-04-15 17:01:00,70.0,27.0,29.39,North,0,0.0,0.0,20,0.00,,,0.00,,2013-04-16 00:01:00,
2013-04-15 17:11:00,70.0,27.0,29.39,North,0,0.0,0.0,20,0.00,,,0.00,,2013-04-16 00:11:00,
2013-04-15 17:21:00,69.0,26.0,29.39,North,0,0.0,0.0,20,0.00,,,0.00,,2013-04-16 00:21:00,
2013-04-15 17:31:00,69.0,29.0,29.39,North,0,0.0,0.0,22,0.00,,,0.00,,2013-04-16 00:31:00,
2013-04-15 17:41:00,69.0,29.0,29.39,North,0,0.0,0.0,22,0.00,,,0.00,,2013-04-16 00:41:00,
2013-04-15 17:52:00,68.0,28.0,29.39,North,0,0.0,0.0,22,0.00,,,0.00,,2013-04-16 00:52:00,
2013-04-15 18:01:00,67.0,27.0,29.36,North,0,0.0,0.0,22,0.00,,,0.00,,2013-04-16 01:01:00,
2013-04-15 18:11:00,66.0,24.0,29.42,North,0,0.0,0.0,20,0.00,,,0.00,,2013-04-16 01:11:00,
2013-04-15 18:31:00,66.0,27.0,29.39,North,0,0.0,0.0,23,0.00,,,0.00,,2013-04-16 01:31:00,
2013-04-15 18:41:00,66.0,27.0,29.39,North,0,0.0,0.0,23,0.00,,,0.00,,2013-04-16 01:41:00,
2013-04-15 18:52:00,65.0,26.0,29.42,North,0,0.0,0.0,23,0.00,,,0.00,,2013-04-16 01:52:00,
2013-04-15 19:01:00,64.0,25.0,29.39,North,0,0.0,0.0,23,0.00,,,0.00,,2013-04-16 02:01:00,
2013-04-15 19:11:00,64.0,25.0,29.39,North,0,0.0,0.0,23,0.00,,,0.00,,2013-04-16 02:11:00,
2013-04-15 19:21:00,64.0,26.0,29.36,North,0,0.0,0.0,24,0.00,,,0.00,,2013-04-16 02:21:00,
2013-04-15 19:31:00,63.0,26.0,29.39,North,0,0.0,0.0,24,0.00,,,0.00,,2013-04-16 02:31:00,
2013-04-15 19:42:00,63.0,26.0,29.39,North,0,0.0,0.0,24,0.00,,,0.00,,2013-04-16 02:42:00,
2013-04-15 19:52:00,63.0,26.0,29.36,North,0,0.0,0.0,24,0.00,,,0.00,,2013-04-16 02:52:00,
2013-04-15 20:01:00,63.0,27.0,29.36,North,0,0.0,0.0,25,0.00,,,0.00,,2013-04-16 03:01:00,
2013-04-15 20:11:00,63.0,27.0,29.36,North,0,0.0,0.0,25,0.00,,,0.00,,2013-04-16 03:11:00,
2013-04-15 20:22:00,62.0,27.0,29.39,North,0,0.0,0.0,26,0.00,,,0.00,,2013-04-16 03:22:00,
2013-04-15 20:32:00,62.0,27.0,29.36,North,0,0.0,0.0,26,0.00,,,0.00,,2013-04-16 03:32:00,
2013-04-15 20:43:00,62.0,27.0,29.36,North,0,0.0,0.0,26,0.00,,,0.00,,2013-04-16 03:43:00,
2013-04-15 20:52:00,62.0,27.0,29.39,North,0,0.0,0.0,26,0.00,,,0.00,,2013-04-16 03:52:00,
2013-04-15 21:02:00,62.0,27.0,29.42,North,0,0.0,0.0,26,0.00,,,0.00,,2013-04-16 04:02:00,
2013-04-15 21:12:00,62.0,27.0,29.42,North,0,0.0,0.0,26,0.00,,,0.00,,2013-04-16 04:12:00,
2013-04-15 21:23:00,62.0,27.0,29.46,North,0,0.0,0.0,26,0.00,,,0.00,,2013-04-16 04:23:00,
2013-04-15 21:32:00,62.0,28.0,29.42,North,0,0.0,0.0,27,0.00,,,0.00,,2013-04-16 04:32:00,
2013-04-15 21:42:00,62.0,28.0,29.42,North,0,0.0,0.0,27,0.00,,,0.00,,2013-04-16 04:42:00,
2013-04-15 21:52:00,61.0,26.0,29.46,North,0,0.0,0.0,26,0.00,,,0.00,,2013-04-16 04:52:00,
2013-04-15 22:02:00,61.0,26.0,29.46,North,0,0.0,0.0,26,0.00,,,0.00,,2013-04-16 05:02:00,
2013-04-15 22:22:00,61.0,26.0,29.46,North,0,0.0,0.0,26,0.00,,,0.00,,2013-04-16 05:22:00,
2013-04-15 22:31:00,61.0,26.0,29.46,North,0,0.0,0.0,26,0.00,,,0.00,,2013-04-16 05:31:00,
2013-04-15 22:42:00,61.0,26.0,29.46,North,0,0.0,0.0,26,0.00,,,0.00,,2013-04-16 05:42:00,
2013-04-15 22:52:00,60.0,25.0,29.46,North,0,0.0,0.0,26,0.00,,,0.00,,2013-04-16 05:52:00,
2013-04-15 23:02:00,60.0,26.0,29.49,North,0,0.0,0.0,27,0.00,,,0.00,,2013-04-16 06:02:00,
2013-04-15 23:11:00,60.0,26.0,29.46,North,0,0.0,0.0,27,0.00,,,0.00,,2013-04-16 06:11:00,
2013-04-15 23:21:00,60.0,26.0,29.46,North,0,0.0,0.0,27,0.00,,,0.00,,2013-04-16 06:21:00,
2013-04-15 23:32:00,59.0,26.0,29.46,North,0,0.0,0.0,28,0.00,,,0.00,,2013-04-16 06:32:00,
2013-04-15 23:41:00,59.0,26.0,29.46,North,0,0.0,0.0,28,0.00,,,0.00,,2013-04-16 06:41:00,
2013-04-15 23:52:00,59.0,28.0,29.46,North,0,0.0,0.0,30,0.00,,,0.00,,2013-04-16 06:52:00,